TimeCST,TemperatureF,Dew PointF,Humidity,Sea Level PressureIn,VisibilityMPH,Wind Direction,Wind SpeedMPH,Gust SpeedMPH,PrecipitationIn,Events,Conditions,WindDirDegrees,DateUTC
12:53 AM,30.0,25.0,82,29.88,10.0,NW,13.8,20.7,N/A,,Overcast,320,2011-12-19 06:53:00
1:39 AM,28.4,23.0,80,29.84,10.0,NW,15.0,-,N/A,,Overcast,320,2011-12-19 07:39:00
1:53 AM,28.9,21.9,75,29.90,10.0,NW,18.4,24.2,N/A,,Overcast,320,2011-12-19 07:53:00
2:53 AM,27.0,21.0,78,29.96,10.0,NW,16.1,23.0,N/A,,Overcast,320,2011-12-19 08:53:00
3:53 AM,26.1,19.9,78,30.00,10.0,NNW,10.4,-,N/A,,Overcast,330,2011-12-19 09:53:00
4:40 AM,24.8,17.6,74,29.96,10.0,NW,17.3,23.0,N/A,,Scattered Clouds,320,2011-12-19 10:40:00
4:53 AM,24.1,17.1,75,30.03,10.0,NW,16.1,25.3,N/A,,Clear,320,2011-12-19 10:53:00
5:11 AM,24.8,17.6,74,29.98,10.0,NNW,17.3,25.3,N/A,,Mostly Cloudy,330,2011-12-19 11:11:00
5:53 AM,23.0,17.1,78,30.06,10.0,NW,19.6,25.3,N/A,,Overcast,320,2011-12-19 11:53:00
6:53 AM,23.0,17.1,78,30.11,10.0,NW,18.4,25.3,N/A,,Overcast,320,2011-12-19 12:53:00
7:53 AM,23.0,17.1,78,30.14,10.0,NNW,15.0,21.9,N/A,,Overcast,330,2011-12-19 13:53:00
8:41 AM,23.0,17.6,80,30.10,10.0,NNW,12.7,-,N/A,,Overcast,330,2011-12-19 14:41:00
8:53 AM,23.0,17.1,78,30.17,10.0,NW,11.5,-,N/A,,Overcast,320,2011-12-19 14:53:00
9:45 AM,24.8,17.6,74,30.14,10.0,NW,15.0,-,N/A,,Overcast,320,2011-12-19 15:45:00
9:53 AM,24.1,16.0,71,30.21,10.0,NW,15.0,-,N/A,,Overcast,320,2011-12-19 15:53:00
10:53 AM,24.1,17.1,75,30.24,10.0,NW,13.8,-,N/A,,Overcast,310,2011-12-19 16:53:00
11:53 AM,24.1,17.1,75,30.26,10.0,NW,10.4,-,N/A,,Overcast,310,2011-12-19 17:53:00
12:53 PM,26.1,16.0,66,30.26,10.0,NW,11.5,18.4,N/A,,Overcast,320,2011-12-19 18:53:00
1:53 PM,26.1,17.1,69,30.26,10.0,NW,11.5,-,N/A,,Overcast,310,2011-12-19 19:53:00
2:53 PM,26.1,16.0,66,30.27,10.0,NNW,15.0,-,N/A,,Overcast,330,2011-12-19 20:53:00
3:53 PM,25.0,16.0,69,30.27,10.0,NW,13.8,-,N/A,,Overcast,310,2011-12-19 21:53:00
4:53 PM,24.1,16.0,71,30.28,10.0,NW,9.2,-,N/A,,Overcast,320,2011-12-19 22:53:00
5:53 PM,24.1,15.1,69,30.29,10.0,NNW,9.2,-,N/A,,Overcast,330,2011-12-19 23:53:00
6:53 PM,23.0,15.1,72,30.30,10.0,NNW,5.8,-,N/A,,Overcast,330,2011-12-20 00:53:00
7:53 PM,21.9,15.1,75,30.30,10.0,NW,4.6,-,N/A,,Overcast,320,2011-12-20 01:53:00
8:53 PM,21.9,15.1,75,30.28,10.0,WSW,4.6,-,N/A,,Overcast,240,2011-12-20 02:53:00
9:53 PM,21.0,15.1,78,30.27,10.0,SSW,6.9,-,N/A,,Overcast,200,2011-12-20 03:53:00
10:36 PM,17.6,12.2,79,30.20,10.0,SSW,5.8,-,N/A,,Scattered Clouds,210,2011-12-20 04:36:00
10:53 PM,17.1,12.0,81,30.27,10.0,SSW,4.6,-,N/A,,Clear,200,2011-12-20 04:53:00
11:53 PM,14.0,10.0,84,30.27,10.0,South,5.8,-,N/A,,Clear,190,2011-12-20 05:53:00